Location: *
(40.7873°S, 98.7174°E)
Time: 10:40:20
(UTC+00:00)

Kosmos-1816 - Pass Details

Date: 26 June 2024
Orbit: 959 x 1007 km, 82.9° (Epoch: 23 July)

Event Time Altitude Azimuth Distance (km) Brightness Sun altitude
Rises 12:45:46 0° 197° (SSW) 3,756 9.2 -29.3°
Reaches altitude 10° 12:48:35 10° 206° (SSW) 2,793 8.6 -29.8°
Maximum altitude 12:54:08 32° 266° (W) 1,628 7.6 -30.9°
Drops below altitude 10° 12:59:37 10° 327° (NNW) 2,735 8.7 -31.9°
Sets 13:02:21 0° 337° (NNW) 3,666 9.3 -32.4°
